AMSAT ECHO

Satellite information

Favourite Embed

Satellite Type and Status

PAYLOADIN ORBIT

Key statistics

Satellite AMSAT ECHO at a glance.

Uptime

7678

Days in orbit

Revolutions

≈ 14.4

Per day

Orbit

SSO

Sun Synchronous Orbit

Inclination

98.6

Latest

Satellite identification and parameters

Extended collection of information and parameters for AMSAT ECHO.

Object identification

Identified? True

Debris? False

Object name: AMSAT ECHO

International designator: 2004-025K

Object number (NORAD): 28375

Object ID (CCSDS): 28375

Country: UNITED STATES OF AMERICA (US)

Current information (Y/N): Y

RCS size: SMALL

Orbital parameters

Period: 99.752 minutes

Inclination: 98.6104 deg

SMA: 7124.838 km

Apoapsis: 804.891 km

Periapsis: 688.514 km

RAAN: 141.2659 deg

Eccentricy: 0.008167

Argument of periapsis: 75.9779 deg

Mean anomaly: 285.0474 deg

Mean motion: 14.43578077 rev/day

Mean motion (dot): 0.00000227 rev/day2

B* drag term: 0.000077827 1/REarth

Two-line elements (TLE)

Creation date: July 6, 2025, 6:05 p.m.

Reference frame: TEME

Reference center: EARTH

Epoch: July 6, 2025, 9:11 a.m. UTC

TLE line 0: 0 AMSAT ECHO

TLE line 1: 1 28375U 04025K 25187.38265276 .00000227 00000-0 77827-4 0 9994

TLE line 2: 2 28375 98.6104 141.2659 0081670 75.9779 285.0474 14.43578077105685

Live tracking on map

Real-time ground track for satellite AMSAT ECHO.

In-orbit conjunctions

There are no conjunctions computed for AMSAT ECHO, at the moment. Check back to stay up to date, as we update our databases every day.

Go to all conjunctions

Associated space launch

AprizeSat, is a constellation of small Low-Earth-Orbit satellites (64 satellites planned) to achieve a global communication system of data transmission and fixed and mobile asset tracking and monitoring (GMPCS).

AMSAT ECHO was lifted into orbit during the mission ‘Dnepr | Aprizesat-2’, on board a Dnepr space rocket.

The launch took place on June 29, 2004, 6:30 a.m. from 109/95.

For more information about the launch, click the button.

Launch to space Dnepr | Aprizesat-2
Dnepr | Aprizesat-2

Agency: N/A

Status: Launch Successful

Launch date: June 29, 2004, 6:30 a.m. UTC

Rocket: Dnepr

Launch pad: 109/95

Location: Baikonur Cosmodrome, Republic of Kazakhstan

...

Latest news about this satellite

There are no fresh news available about this satellite. Check back as we update our databases every day.


Newsletter sign-up

Weekly statistics, charts and insights to help you stay on top of the space industry.